When you browse on this site, cookies collect data to enhance your experience and personalize the content and advertising you see.
Visit our Privacy Policy to learn more. By continuing to use the site, you agree to this use of cookies and data.
  • In Hungary
  • List of Countries
  • For 7 days
  • Water Temperature
  • Satellite Maps
  • Weather Map
  • News
  • Weather Widgets
  • user-avatar
    Login

    Hourly Weather Boussu

    Today, 20 January, Sunday

    Time Temperature Precipitation Wind Pressure Humidity
    00:00 -2°C° 0 mm 2 mps 755 mmHg 69%
    01:00 -2°C° 0 mm 2 mps 755 mmHg 68%
    02:00 -2°C° 0 mm 2 mps 755 mmHg 68%
    03:00 -2°C° 0 mm 2 mps 755 mmHg 67%
    04:00 -2°C° 0 mm 2 mps 755 mmHg 66%
    05:00 -2°C° 0 mm 2 mps 755 mmHg 66%
    06:00 -2°C° 0 mm 2 mps 755 mmHg 65%
    07:00 -2°C° 0 mm 2 mps 756 mmHg 63%
    08:00 -1°C° 0 mm 2 mps 756 mmHg 61%
    09:00 -1°C° 0 mm 2 mps 757 mmHg 59%
    10:00 +1°C° 0 mm 2 mps 757 mmHg 55%
    11:00 +2°C° 0 mm 2 mps 757 mmHg 51%
    12:00 +3°C° 0 mm 2 mps 757 mmHg 47%
    13:00 +3°C° 0 mm 2 mps 758 mmHg 49%
    14:00 +2°C° 0 mm 2 mps 758 mmHg 52%
    15:00 +2°C° 0 mm 2 mps 758 mmHg 54%
    16:00 +1°C° 0 mm 2 mps 759 mmHg 58%
    17:00 -1°C° 0 mm 2 mps 759 mmHg 63%
    18:00 -3°C° 0 mm 2 mps 760 mmHg 67%
    19:00 -3°C° 0 mm 2 mps 760 mmHg 68%
    20:00 -3°C° 0 mm 2 mps 761 mmHg 69%
    21:00 -3°C° 0 mm 2 mps 761 mmHg 70%
    22:00 -3°C° 0 mm 2 mps 762 mmHg 70%
    23:00 -3°C° 0 mm 2 mps 762 mmHg 70%

    Tomorrow, 21 January, Monday

    Time Temperature Precipitation Wind Pressure Humidity
    00:00 -3°C° 0 mm 2 mps 762 mmHg 69%
    01:00 -3°C° 0 mm 2 mps 762 mmHg 68%
    02:00 -1°C° 0 mm 1 mps 763 mmHg 67%
    03:00 -1°C° 0 mm 1 mps 763 mmHg 66%
    04:00 -1°C° 0 mm 1 mps 763 mmHg 65%
    05:00 -1°C° 0 mm 1 mps 763 mmHg 65%
    06:00 -1°C° 0 mm 1 mps 763 mmHg 64%
    07:00 -2°C° 0 mm 0 mps 763 mmHg 60%
    08:00 -1°C° 0 mm 0 mps 763 mmHg 57%
    09:00 -1°C° 0 mm 0 mps 763 mmHg 54%
    10:00 0°C° 0 mm 0 mps 763 mmHg 50%
    11:00 +2°C° 0 mm 0 mps 763 mmHg 46%
    12:00 +3°C° 0 mm 0 mps 763 mmHg 41%
    13:00 +4°C° 0 mm 1 mps 763 mmHg 44%
    14:00 +3°C° 0 mm 1 mps 762 mmHg 47%
    15:00 +3°C° 0 mm 1 mps 762 mmHg 50%
    16:00 +2°C° 0 mm 1 mps 761 mmHg 53%
    17:00 -1°C° 0 mm 2 mps 761 mmHg 56%
    18:00 -2°C° 0 mm 2 mps 761 mmHg 60%
    19:00 -2°C° 0 mm 2 mps 760 mmHg 61%
    20:00 -4°C° 0 mm 3 mps 760 mmHg 62%
    21:00 -4°C° 0 mm 3 mps 759 mmHg 62%
    22:00 -4°C° 0 mm 4 mps 758 mmHg 61%
    23:00 -4°C° 0 mm 5 mps 758 mmHg 60%

    Day after tomorrow, 22 January, Tuesday

    Time Temperature Precipitation Wind Pressure Humidity
    00:00 -4°C° 0 mm 5 mps 757 mmHg 59%
    01:00 -4°C° 0 mm 6 mps 756 mmHg 58%
    02:00 -4°C° 0 mm 6 mps 755 mmHg 57%
    03:00 -3°C° 0 mm 7 mps 753 mmHg 56%
    04:00 -3°C° 0 mm 7 mps 752 mmHg 59%
    05:00 -4°C° 0 mm 8 mps 751 mmHg 61%
    06:00 -4°C° 0 mm 8 mps 750 mmHg 63%
    07:00 -4°C° 0.7 mm 8 mps 749 mmHg 72%
    08:00 -4°C° 0.7 mm 8 mps 748 mmHg 81%
    09:00 -4°C° 0.7 mm 8 mps 748 mmHg 90%
    10:00 -3°C° 0.8 mm 7 mps 747 mmHg 91%
    11:00 -3°C° 0.8 mm 6 mps 746 mmHg 91%
    12:00 -2°C° 0.8 mm 6 mps 746 mmHg 92%
    13:00 -1°C° 0.8 mm 4 mps 745 mmHg 94%
    14:00 0°C° 0.8 mm 3 mps 745 mmHg 95%
    15:00 +1°C° 0.8 mm 2 mps 745 mmHg 97%
    16:00 +1°C° 0.2 mm 2 mps 745 mmHg 96%
    17:00 -1°C° 0.2 mm 2 mps 745 mmHg 94%
    18:00 +1°C° 0.2 mm 1 mps 745 mmHg 93%
    19:00 -1°C° 0 mm 2 mps 745 mmHg 92%
    20:00 -1°C° 0 mm 2 mps 745 mmHg 92%
    21:00 -1°C° 0 mm 2 mps 745 mmHg 91%
    22:00 -2°C° 0 mm 2 mps 745 mmHg 91%
    23:00 -2°C° 0 mm 2 mps 745 mmHg 91%

    23 January, Wednesday

    Time Temperature Precipitation Wind Pressure Humidity
    00:00 -2°C° 0 mm 2 mps 745 mmHg 91%
    01:00 -2°C° 0 mm 2 mps 745 mmHg 91%
    02:00 -2°C° 0 mm 2 mps 745 mmHg 91%
    03:00 -2°C° 0 mm 2 mps 745 mmHg 91%
    04:00 -3°C° 0 mm 2 mps 746 mmHg 91%
    05:00 -3°C° 0 mm 2 mps 746 mmHg 92%
    06:00 -3°C° 0 mm 2 mps 746 mmHg 92%
    07:00 -3°C° 0 mm 2 mps 747 mmHg 92%
    08:00 -3°C° 0 mm 2 mps 747 mmHg 91%
    09:00 -2°C° 0 mm 2 mps 748 mmHg 91%
    10:00 -1°C° 0 mm 2 mps 748 mmHg 93%
    11:00 +1°C° 0 mm 2 mps 748 mmHg 95%
    12:00 +2°C° 0 mm 2 mps 749 mmHg 97%
    13:00 +2°C° 0 mm 2 mps 749 mmHg 96%
    14:00 +2°C° 0 mm 2 mps 749 mmHg 94%
    15:00 +2°C° 0 mm 2 mps 749 mmHg 93%
    16:00 +1°C° 0 mm 2 mps 750 mmHg 93%
    17:00 -1°C° 0 mm 2 mps 750 mmHg 92%
    18:00 -2°C° 0 mm 2 mps 751 mmHg 92%
    19:00 -2°C° 0 mm 2 mps 752 mmHg 93%
    20:00 -1°C° 0 mm 2 mps 752 mmHg 94%
    21:00 -1°C° 0 mm 3 mps 753 mmHg 94%
    22:00 -1°C° 0 mm 3 mps 753 mmHg 94%
    23:00 -1°C° 0 mm 3 mps 753 mmHg 93%

    24 January, Thursday

    Time Temperature Precipitation Wind Pressure Humidity
    00:00 -1°C° 0 mm 3 mps 753 mmHg 93%
    01:00 -2°C° 0 mm 3 mps 754 mmHg 92%
    02:00 -2°C° 0 mm 3 mps 754 mmHg 91%
    03:00 -4°C° 0 mm 3 mps 754 mmHg 90%
    04:00 -4°C° 0 mm 3 mps 754 mmHg 90%
    05:00 -3°C° 0 mm 2 mps 754 mmHg 89%
    06:00 -4°C° 0 mm 2 mps 754 mmHg 89%
    07:00 -3°C° 0 mm 2 mps 755 mmHg 88%
    08:00 -3°C° 0 mm 2 mps 755 mmHg 87%
    09:00 -3°C° 0 mm 2 mps 755 mmHg 87%
    10:00 -2°C° 0 mm 2 mps 755 mmHg 88%
    11:00 -1°C° 0 mm 2 mps 755 mmHg 88%
    12:00 +1°C° 0 mm 2 mps 755 mmHg 89%
    13:00 +1°C° 0 mm 2 mps 755 mmHg 90%
    14:00 +1°C° 0 mm 2 mps 755 mmHg 90%
    15:00 +1°C° 0 mm 2 mps 755 mmHg 91%
    16:00 -1°C° 0 mm 2 mps 756 mmHg 91%
    17:00 -1°C° 0 mm 2 mps 756 mmHg 91%
    18:00 -2°C° 0 mm 2 mps 756 mmHg 91%
    19:00 0°C° 0 mm 1 mps 757 mmHg 91%
    20:00 0°C° 0 mm 1 mps 757 mmHg 91%
    21:00 -1°C° 0 mm 1 mps 758 mmHg 92%
    22:00 -1°C° 0 mm 1 mps 758 mmHg 92%
    23:00 -1°C° 0 mm 1 mps 758 mmHg 92%

    25 January, Friday

    Time Temperature Precipitation Wind Pressure Humidity
    00:00 -2°C° 0 mm 1 mps 759 mmHg 92%
    01:00 -3°C° 0 mm 0 mps 759 mmHg 92%
    02:00 -3°C° 0 mm 0 mps 759 mmHg 92%
    03:00 -3°C° 0 mm 0 mps 760 mmHg 92%
    04:00 -3°C° 0 mm 0 mps 760 mmHg 93%
    05:00 -3°C° 0 mm 0 mps 760 mmHg 93%
    06:00 -3°C° 0 mm 0 mps 761 mmHg 93%
    07:00 -3°C° 0 mm 0 mps 761 mmHg 93%
    08:00 -2°C° 0 mm 0 mps 762 mmHg 92%
    09:00 -1°C° 0 mm 1 mps 763 mmHg 92%
    10:00 0°C° 0 mm 1 mps 763 mmHg 91%
    11:00 +1°C° 0 mm 1 mps 763 mmHg 90%
    12:00 +2°C° 0 mm 1 mps 763 mmHg 90%
    13:00 +2°C° 0 mm 1 mps 763 mmHg 90%
    14:00 +2°C° 0 mm 1 mps 763 mmHg 91%
    15:00 +2°C° 0 mm 1 mps 763 mmHg 92%
    16:00 -1°C° 0 mm 2 mps 763 mmHg 92%
    17:00 -2°C° 0 mm 2 mps 764 mmHg 92%
    18:00 -3°C° 0 mm 2 mps 764 mmHg 92%
    19:00 -4°C° 0 mm 3 mps 764 mmHg 92%
    20:00 -4°C° 0 mm 3 mps 764 mmHg 92%
    21:00 -4°C° 0 mm 3 mps 764 mmHg 92%
    22:00 -4°C° 0 mm 4 mps 764 mmHg 91%
    23:00 -4°C° 0 mm 4 mps 764 mmHg 90%
    Show more